Regional Weather Roundup
Issued by NWS Charleston, SC

Home | Current Version | Previous Version | Text Only | Print | Product List | Glossary On
Versions: 1 2 3 4 5 6 7 8 9 10 11 12 13 14 15 16 17 18 19 20 21 22 23 24 25 26 27 28 29 30 31 32 33 34 35 36 37 38 39 40 41 42 43 44 45 46 47 48 49 50
846
ASUS42 KCHS 191127
RWRCHS

REGIONAL WEATHER ROUNDUP
NATIONAL WEATHER SERVICE CHARLESTON SC
600 AM EST THU JAN 19 2017

NOTE: "FAIR" INDICATES FEW OR NO CLOUDS BELOW 12,000 FEET WITH NO
SIGNIFICANT WEATHER AND/OR OBSTRUCTIONS TO VISIBILITY.

NOT ALL STATIONS ARE QUALITY CONTROLLED. USE DATA WITH CAUTION...
ESPECIALLY DEWPOINT OBSERVATIONS.

SCZ027-030-031-034>040-042>050-191200-
...SOUTHEAST SOUTH CAROLINA...

CITY           SKY/WX    TMP DP  RH WIND       PRES   REMARKS
N CHARLESTON   PTCLDY    51  50  96 CALM      30.01S
WATERFRONT PRK   N/A     56  55  97 VRB2      30.00F
MOUNT PLEASANT LGT RAIN  52  50  93 CALM      30.02R
JOHNS ISLAND   FOG       54  54 100 CALM      30.02R VSB<1/4
PINOPOLIS        N/A     54  50  87 E7        29.94S
MONCKS CORNER  FAIR      48  46  93 CALM      30.03R
SUMMERVILLE    FAIR     N/A N/A N/A CALM      30.04R
BEAUFORT MCAS  CLEAR     56  54  93 CALM      30.02R
BEAUFORT ARPT  FAIR      55  55 100 CALM      30.02R
HILTON HEAD IS NOT AVBL
WALTERBORO     SUNNY     52  52 100 CALM      30.03R
ALLENDALE      FAIR      52  50  93 CALM      30.02S

...SOUTHERN MIDLANDS AND PEE DEE...

CITY           SKY/WX    TMP DP  RH WIND       PRES   REMARKS
GEORGETOWN     FAIR      46  46 100 NE3       30.04R
KINGSTREE      FAIR      46  41  81 N5        30.04S
ORANGEBURG     CLEAR     51  41  68 NE7       30.03R
BARNWELL       FAIR      52  45  76 CALM      30.04R
AIKEN          FAIR      46  37  71 NE6       30.07R
MANNING        FAIR      46  27  46 N5        30.05R
COLUMBIA       CLEAR     44  38  79 CALM      30.04R
SUMTER         CLEAR     44  37  77 NE7       30.03R
FLORENCE       CLEAR     46  39  76 NE8       30.06S
MYRTLE BEACH   CLEAR     46  43  87 N12       30.06F
N MYRTLE BEACH CLEAR     44  44 100 NE6       30.04S

$$

GAZ063-065-086>088-099>101-113>116-118-119-134>141-150-191200-
...SOUTHEAST GEORGIA...

CITY           SKY/WX    TMP DP  RH WIND       PRES   REMARKS
SAVANNAH ARPT  CLEAR     56  54  93 W3        30.04R
HUNTER AAF     CLEAR     55  55 100 W6        30.01R
FORT STEWART   FOG       54  52  94 CALM      30.02S VSB 1
STATESBORO     CLEAR     52  32  46 CALM      30.04S
SYLVANIA         N/A    N/A N/A N/A CALM      30.05R FOG
CLAXTON          N/A    N/A N/A N/A CALM      30.05S FOG

...CSRA...CENTRAL AND FAR SOUTHEAST GEORGIA...

CITY           SKY/WX    TMP DP  RH WIND       PRES   REMARKS
THOMSON        CLEAR     48  48 100 CALM      30.09R
AUGUSTA-BUSH   CLEAR     49  47  93 CALM        N/A
AUGUSTA-DANIEL CLEAR     54  45  71 N3        30.04R
SWAINSBORO     FOG       52  52 100 MISG      30.06R VSB 1/4
VIDALIA        FOG       55  55 100 CALM      30.05S VSB 1/4
EASTMAN        FOG       51  51  99 CALM      30.07R VSB 3/4
HAZLEHURST     FOG       56  56 100 CALM      30.04S VSB 1/2
ALMA           FOG       52  52 100 CALM      30.04S VSB 1/2
WAYCROSS       FOG       56  56 100 CALM      30.05S VSB 1/2
JESUP          FAIR      55  52  88 CALM      30.05R FOG
BAXLEY         FOG       55  55 100 CALM      30.04S VSB 1/2
BRUNSWICK      FOG       55  55 100 CALM      30.06R VSB 1/2
SAINT SIMONS   CLEAR     60  58  92 CALM      30.04R

$$

SCZ027-028-034-036>038-045-046-048>050-GAZ119-141-191200-
...LAKE AND SUPPLEMENTAL COASTAL OBSERVATIONS...

STATION/POSITION TIME  TEMP    WIND        PRES    WAVE   SWELL
                       AIR SEA DIR/SP/G            HT/PER HT/PER/DIR
                 (UTC) (F)     (DEG/KT/KT) (MB)    (FT/S) (FT/S/D)
WINYAH BAY       1030   54      50/  7     1017.0R
LAKE MURRAY      1030   49      CALM  /  1 1016.9S
ACE BASIN NERRS  1045   55        CALM     1016.0S
FORT PULASKI     1100   60 57  260/  4/  5 1017.1
SAPELO ISLAND    1100   58        CALM     1017.0

$$

ANZ835-935-AMZ111-154-330-350-352-354-370-450-454-472-191200-
...C-MAN AND BUOY OBSERVATIONS...

STATION/POSITION TIME  TEMP    WIND        PRES    WAVE   SWELL
                       AIR SEA DIR/SP/G            HT/PER HT/PER/DIR
                 (UTC) (F)     (DEG/KT/KT) (MB)    (FT/S) (FT/S/D)
BUOY 41004       1050   69 70   80/  4/  6 1015.4F   2/ 5   2/190/ 5
BUOY 41008       1050   61 59  270/  4/  4 1016.9R   1/10
FOLLY BEACH CMAN 1100   56        CALM     1016.9R
CAPERS NEARSHORE 1008   56 55   60/  8/ 12 1015.9R
FRIPP NEARSHORE  1108   58 57  280/  4/  6 1016.3R


STATION/POSITION TIME  TEMP    WIND        PRES    WAVE   SWELL
                       AIR SEA DIR/SP/G            HT/PER HT/PER/DIR
                 (UTC) (F)     (DEG/KT/KT) (MB)    (FT/S) (FT/S/D)
5E ST. MARYS GA  1100      63                N/A     1/10
FRYING PAN BUOY  1110   63 70   30/  8/ 10 1017.1
BUOY 41025       1050   53 75   20/ 19/ 23 1016.3F   6/11   3/ 60/11
CAPE LOOKOUT NC  1100   47     350/  7/  9 1017.5R
BUOY 41002       1050   67 71  350/ 12/ 16 1015.7R   8/ 8   8/ 8
BUOY 41010       NOT AVBL
ST AUGUSTINE FL  1100   63 62  280/  6/  8 1018.4R


$$




USA.gov is the U.S. government's official web portal to all federal, state and local government web resources and services.